Location: Newark
(33.1119°N, 7.4058°W)
Time: 03:56:48
(UTC+00:00)

LightSail 2 - Visible Passes

Search period start: 21 November 2019 00:00
Search period end: 01 December 2019 00:00
Orbit: 699 x 728 km, 24.0° (Epoch: 20 November)

Date Brightness Start Highest point End Pass type
(mag) Time Alt. Az. Time Alt. Az. Time Alt. Az.
21 Nov 7.7 04:24:08 12° SSE 04:24:08 12° SSE 04:24:36 10° SSE visible
27 Nov 7.4 19:48:36 10° SSW 19:50:09 15° S 19:50:09 15° S visible
28 Nov 7.2 18:51:35 10° SSW 18:54:07 14° SSE 18:55:50 12° SE visible
29 Nov 7.5 17:55:25 10° S 17:56:22 10° SSE 17:57:19 10° SSE visible
29 Nov 6.9 19:37:18 10° SW 19:40:29 22° S 19:40:29 22° S visible
30 Nov 7.0 18:39:51 10° SSW 18:43:28 19° SSE 18:46:08 13° SE visible
30 Nov 7.7 20:24:05 10° SW 20:25:07 15° SW 20:25:07 15° SW visible
